Tracking 30070 objects as of 15-Jan-2025
HD Live streaming from Space Station
objects crossing your sky now

SL-6 R/B(2)

Track SL-6 R/B(2) now!


NORAD ID: 12680
Int'l Code: 1981-071D
Perigee: 2,137.1 km
Apogee: 38,476.1 km
Inclination: 65.8 °
Period: 722.7 minutes
Semi major axis: 26677 km
RCS: 5.721 m2 (large)
Launch date: August 4, 1981
Source: Commonwealth of Independent States (former USSR) (CIS)
Launch site: PLESETSK MISSILE AND SPACE COMPLEX (PKMTR)

Note: This is a ROCKET BODY
Your satellite tracking list
Your tracking list is empty




NASA's NSSDC Master Catalog

Two Line Element Set (TLE):
1 12680U 81071D   25014.92074990  .00000312  00000-0  00000+0 0  9991
2 12680  65.7716 102.0730 6810782  23.1421 356.7534  1.99243394234454
Source of the keplerian elements: AFSPC